Time,TemperatureF,DewpointF,PressureIn,WindDirection,WindDirectionDegrees,WindSpeedMPH,WindSpeedGustMPH,Humidity,HourlyPrecipIn,Conditions,Clouds,dailyrainin,SoftwareType,DateUTC
2013-02-25 00:00:00,29.0,16.0,30.06,WNW,300,4.0,8.0,58,0.00,,,-99.99,,2013-02-25 07:00:00,
2013-02-25 00:42:00,29.0,16.0,30.06,WNW,300,4.0,8.0,58,0.00,,,-99.99,,2013-02-25 07:42:00,
2013-02-25 00:52:00,29.0,16.0,30.06,WNW,300,4.0,8.0,58,0.00,,,-99.99,,2013-02-25 07:52:00,
2013-02-25 01:00:00,29.0,16.0,30.08,WNW,295,4.0,7.0,57,0.00,,,-99.99,,2013-02-25 08:00:00,
2013-02-25 01:42:00,29.0,16.0,30.08,WNW,295,4.0,7.0,57,0.00,,,-99.99,,2013-02-25 08:42:00,
2013-02-25 01:52:00,29.0,16.0,30.08,WNW,295,4.0,7.0,57,0.00,,,-99.99,,2013-02-25 08:52:00,
2013-02-25 02:00:00,27.0,16.0,30.09,WNW,287,2.0,5.0,62,0.00,,,-99.99,,2013-02-25 09:00:00,
2013-02-25 02:42:00,27.0,16.0,30.09,WNW,287,2.0,5.0,62,0.00,,,-99.99,,2013-02-25 09:42:00,
2013-02-25 02:52:00,27.0,16.0,30.09,WNW,287,2.0,5.0,62,0.00,,,-99.99,,2013-02-25 09:52:00,
2013-02-25 03:00:00,26.0,16.0,30.09,WNW,285,4.0,5.0,63,0.00,,,-99.99,,2013-02-25 10:00:00,
2013-02-25 03:42:00,26.0,16.0,30.09,WNW,285,4.0,5.0,63,0.00,,,-99.99,,2013-02-25 10:42:00,
2013-02-25 03:52:00,26.0,16.0,30.09,WNW,285,4.0,5.0,63,0.00,,,-99.99,,2013-02-25 10:52:00,
2013-02-25 04:00:00,26.0,15.0,30.09,WNW,295,3.0,5.0,63,0.00,,,-99.99,,2013-02-25 11:00:00,
2013-02-25 04:42:00,26.0,15.0,30.09,WNW,295,3.0,5.0,63,0.00,,,-99.99,,2013-02-25 11:42:00,
2013-02-25 04:52:00,26.0,15.0,30.09,WNW,295,3.0,5.0,63,0.00,,,-99.99,,2013-02-25 11:52:00,
2013-02-25 05:00:00,25.0,15.0,30.10,NW,306,2.0,4.0,64,0.00,,,-99.99,,2013-02-25 12:00:00,
2013-02-25 05:42:00,25.0,15.0,30.10,NW,306,2.0,4.0,64,0.00,,,-99.99,,2013-02-25 12:42:00,
2013-02-25 05:55:00,25.0,15.0,30.10,NW,306,2.0,4.0,64,0.00,,,-99.99,,2013-02-25 12:55:00,
2013-02-25 06:00:00,23.0,15.0,30.10,South,187,1.0,3.0,69,0.00,,,-99.99,,2013-02-25 13:00:00,
2013-02-25 06:42:00,23.0,15.0,30.10,South,187,1.0,3.0,69,0.00,,,-99.99,,2013-02-25 13:42:00,
2013-02-25 06:52:00,23.0,15.0,30.10,South,187,1.0,3.0,69,0.00,,,-99.99,,2013-02-25 13:52:00,
2013-02-25 07:00:00,21.0,14.0,30.12,SE,143,2.0,9.0,76,0.00,,,-99.99,,2013-02-25 14:00:00,
2013-02-25 07:42:00,21.0,14.0,30.12,SE,143,2.0,9.0,76,0.00,,,-99.99,,2013-02-25 14:42:00,
2013-02-25 07:52:00,21.0,14.0,30.12,SE,143,2.0,9.0,76,0.00,,,-99.99,,2013-02-25 14:52:00,
2013-02-25 08:00:00,23.0,14.0,30.13,SE,139,3.0,6.0,68,0.00,,,-99.99,,2013-02-25 15:00:00,
2013-02-25 08:42:00,23.0,14.0,30.13,SE,139,3.0,6.0,68,0.00,,,-99.99,,2013-02-25 15:42:00,
2013-02-25 08:52:00,23.0,14.0,30.13,SE,139,3.0,6.0,68,0.00,,,-99.99,,2013-02-25 15:52:00,
2013-02-25 09:00:00,28.0,15.0,30.15,SE,146,3.0,6.0,59,0.00,,,-99.99,,2013-02-25 16:00:00,
2013-02-25 09:42:00,28.0,15.0,30.15,SE,146,3.0,6.0,59,0.00,,,-99.99,,2013-02-25 16:42:00,
2013-02-25 09:52:00,28.0,15.0,30.15,SE,146,3.0,6.0,59,0.00,,,-99.99,,2013-02-25 16:52:00,
2013-02-25 10:00:00,31.0,16.0,30.16,North,358,2.0,5.0,54,0.00,,,-99.99,,2013-02-25 17:00:00,
2013-02-25 10:42:00,31.0,16.0,30.16,North,358,2.0,5.0,54,0.00,,,-99.99,,2013-02-25 17:42:00,
2013-02-25 10:52:00,31.0,16.0,30.16,North,358,2.0,5.0,54,0.00,,,-99.99,,2013-02-25 17:52:00,
2013-02-25 12:00:00,36.0,16.0,30.12,WNW,289,2.0,5.0,44,0.00,,,-99.99,,2013-02-25 19:00:00,
2013-02-25 12:42:00,36.0,16.0,30.12,WNW,289,2.0,5.0,44,0.00,,,-99.99,,2013-02-25 19:42:00,
2013-02-25 12:52:00,36.0,16.0,30.12,WNW,289,2.0,5.0,44,0.00,,,-99.99,,2013-02-25 19:52:00,
2013-02-25 13:00:00,37.0,16.0,30.09,NE,42,2.0,6.0,40,0.00,,,-99.99,,2013-02-25 20:00:00,
2013-02-25 13:42:00,37.0,16.0,30.09,NE,42,2.0,6.0,40,0.00,,,-99.99,,2013-02-25 20:42:00,
2013-02-25 13:52:00,37.0,16.0,30.09,NE,42,2.0,6.0,40,0.00,,,-99.99,,2013-02-25 20:52:00,
2013-02-25 14:00:00,40.0,16.0,30.06,NNW,330,3.0,6.0,38,0.00,,,-99.99,,2013-02-25 21:00:00,
2013-02-25 14:42:00,40.0,16.0,30.06,NNW,330,3.0,6.0,38,0.00,,,-99.99,,2013-02-25 21:42:00,
2013-02-25 14:52:00,40.0,16.0,30.06,NNW,330,3.0,6.0,38,0.00,,,-99.99,,2013-02-25 21:52:00,
2013-02-25 15:00:00,41.0,16.0,30.02,NNW,327,3.0,5.0,35,0.00,,,-99.99,,2013-02-25 22:00:00,
2013-02-25 15:42:00,41.0,16.0,30.02,NNW,327,3.0,5.0,35,0.00,,,-99.99,,2013-02-25 22:42:00,
2013-02-25 15:52:00,41.0,16.0,30.02,NNW,327,3.0,5.0,35,0.00,,,-99.99,,2013-02-25 22:52:00,
2013-02-25 16:00:00,42.0,14.0,30.00,West,272,2.0,9.0,31,0.00,,,-99.99,,2013-02-25 23:00:00,
2013-02-25 16:42:00,42.0,14.0,30.00,West,272,2.0,9.0,31,0.00,,,-99.99,,2013-02-25 23:42:00,
2013-02-25 16:52:00,42.0,14.0,30.00,West,272,2.0,9.0,31,0.00,,,-99.99,,2013-02-25 23:52:00,
2013-02-25 18:00:00,38.0,16.0,29.94,SW,215,3.0,4.0,40,0.00,,,-99.99,,2013-02-26 01:00:00,
2013-02-25 18:42:00,38.0,16.0,29.94,SW,215,3.0,4.0,40,0.00,,,-99.99,,2013-02-26 01:42:00,
2013-02-25 18:52:00,38.0,16.0,29.94,SW,215,3.0,4.0,40,0.00,,,-99.99,,2013-02-26 01:52:00,
2013-02-25 19:00:00,36.0,20.0,29.91,SSE,156,3.0,8.0,50,0.00,,,-99.99,,2013-02-26 02:00:00,
2013-02-25 19:42:00,36.0,20.0,29.91,SSE,156,3.0,8.0,50,0.00,,,-99.99,,2013-02-26 02:42:00,
2013-02-25 19:52:00,36.0,20.0,29.91,SSE,156,3.0,8.0,50,0.00,,,-99.99,,2013-02-26 02:52:00,
2013-02-25 21:00:00,34.0,19.0,29.91,SSW,197,1.0,3.0,55,0.00,,,-99.99,,2013-02-26 04:00:00,
2013-02-25 21:42:00,34.0,19.0,29.91,SSW,197,1.0,3.0,55,0.00,,,-99.99,,2013-02-26 04:42:00,
2013-02-25 21:52:00,34.0,19.0,29.91,SSW,197,1.0,3.0,55,0.00,,,-99.99,,2013-02-26 04:52:00,
2013-02-25 22:00:00,31.0,19.0,29.91,South,171,1.0,4.0,60,0.00,,,-99.99,,2013-02-26 05:00:00,
2013-02-25 22:43:00,31.0,19.0,29.91,South,171,1.0,4.0,60,0.00,,,-99.99,,2013-02-26 05:43:00,
2013-02-25 22:52:00,31.0,19.0,29.91,South,171,1.0,4.0,60,0.00,,,-99.99,,2013-02-26 05:52:00,